Theta_e
308 308 308 308 309 308 307 307 309 310 309 307 306 305 304 304 303 299 295 296 293 292 294 296 295 289 289 287 284 288 288 294 293 289 289 290 291 293 292 296 294 291 288 289 291 287 284 305 304 298 301 307 308 307
307 307 307 307 308 307 307 307 308 309 308 307 305 305 305 304 303 302 292 296 299 292 291 296 296 297 296 295 292 292 288 291 294 292 291 291 290 292 293 288 299 293 298 294 293 293 303 305 305 307 307 307 308 307
306 307 307 306 306 306 305 306 306 307 308 307 306 305 305 304 304 302 297 293 292 292 291 289 290 297 300 300 302 290 292 295 298 300 295 293 289 294 289 293 293 300 304 297 297 300 302 307 310 309 310 306 307 306
305 305 305 304 305 304 305 305 306 307 307 306 305 305 305 304 304 303 294 293 291 291 286 287 298 296 300 300 299 300 302 302 301 299 295 293 290 297 292 294 292 296 303 300 299 302 304 307 307 312 310 307 306 305
302 302 303 303 303 304 304 305 307 308 307 306 305 305 304 304 303 300 296 294 296 293 286 289 295 297 297 296 298 299 300 300 298 295 294 292 296 296 295 294 291 302 300 298 298 304 302 302 309 314 307 306 305 303
302 301 301 302 303 303 305 305 306 307 306 305 305 304 303 302 302 292 288 302 302 300 293 287 292 294 297 297 298 299 300 300 299 296 295 297 300 296 291 288 301 301 304 305 303 308 309 309 310 314 308 305 305 304
301 301 301 301 302 304 304 306 307 306 305 304 303 302 302 302 294 287 287 297 302 297 293 288 285 293 297 299 300 300 302 299 299 297 295 296 296 298 294 290 295 299 302 303 305 309 306 308 307 311 308 306 304 299
299 300 300 301 302 304 305 306 307 305 304 303 303 302 302 302 299 294 295 300 298 290 294 286 285 288 297 295 296 301 299 300 299 298 297 295 297 297 291 294 296 299 300 301 302 308 306 307 304 302 300 298 296 294
299 300 300 300 302 303 304 307 306 305 303 302 302 302 298 295 288 293 308 305 299 296 289 288 284 281 295 293 294 296 300 294 299 293 294 296 294 290 294 295 298 297 296 297 300 305 303 300 298 298 297 295 293 293
299 300 300 300 302 304 305 306 304 303 302 301 296 292 293 296 303 305 301 294 294 295 295 288 288 285 289 287 290 291 294 292 290 292 298 292 292 297 298 299 299 298 297 299 300 297 297 296 295 295 294 294 295 293
299 300 300 301 303 304 306 304 302 301 299 293 292 291 295 303 296 293 290 290 292 288 292 289 289 289 294 285 287 292 290 292 287 291 291 290 289 295 298 298 299 297 297 300 300 299 298 297 295 295 295 295 294 293
299 300 300 301 303 304 306 303 301 293 293 292 291 294 292 291 292 289 289 291 288 285 290 291 295 296 293 297 292 294 292 295 288 295 291 287 293 296 297 297 297 298 297 296 297 296 296 296 296 295 295 294 294 294
299 300 300 301 303 305 304 302 300 298 297 293 292 290 289 285 277 283 282 285 287 294 296 296 294 295 293 297 292 293 290 290 297 291 286 292 296 297 297 298 297 298 298 297 297 297 297 297 297 296 295 296 295 294
299 300 301 302 303 304 302 301 300 297 291 288 287 283 282 281 284 284 285 287 292 293 295 295 292 292 293 292 293 290 293 293 289 283 285 292 296 297 298 298 297 296 297 297 297 297 297 297 296 297 296 296 294 293
299 300 302 302 304 302 302 300 299 293 289 288 288 281 283 287 288 291 294 293 294 295 293 291 291 291 291 291 293 293 290 288 287 284 290 295 294 298 299 299 298 298 297 297 297 296 296 296 296 294 294 294 294 293
300 301 301 304 303 302 301 299 294 292 290 288 287 284 286 284 285 288 288 289 293 293 292 291 289 288 290 291 290 290 288 283 288 292 295 297 295 297 298 299 298 298 297 295 295 295 294 293 292 292 294 294 293 293
300 298 303 303 302 302 301 293 292 289 287 286 284 287 287 285 284 286 289 290 293 291 287 289 286 288 294 290 289 292 290 293 297 294 296 297 299 298 301 301 296 295 294 294 294 294 293 293 293 292 291 292 293 293
297 300 303 302 300 298 295 294 291 287 285 285 282 284 285 286 286 287 290 292 292 291 291 290 294 289 288 288 288 293 297 298 301 298 295 298 303 302 299 297 297 297 295 295 294 294 293 293 292 291 291 291 292 291
299 301 303 302 298 294 290 289 291 285 286 286 287 288 287 287 289 290 291 293 294 296 295 292 290 289 290 295 293 294 297 295 297 299 300 302 303 303 300 298 297 296 295 294 293 292 292 292 292 292 291 291 290 290
301 301 301 301 299 292 289 288 292 287 284 285 286 285 286 287 290 291 292 292 292 292 290 290 290 292 293 295 297 297 299 302 301 299 299 299 302 300 298 297 296 296 295 294 293 292 291 291 292 291 291 291 290 289
297 298 299 296 294 293 290 289 288 286 286 285 288 287 287 290 289 289 289 294 289 289 288 291 292 294 298 299 300 301 300 303 301 300 298 298 301 301 301 300 298 296 294 293 292 292 291 291 291 292 290 290 290 291
295 298 291 294 290 290 287 288 285 287 286 287 287 287 286 287 288 289 292 290 289 290 291 292 293 294 298 300 299 301 301 301 303 300 298 299 300 299 299 300 299 295 294 293 293 292 292 293 293 292 292 291 291 291
297 295 292 291 287 285 281 288 283 285 282 285 291 289 288 290 292 295 289 291 292 295 296 295 295 296 298 302 303 300 302 301 300 300 301 302 301 301 301 301 301 300 295 294 294 294 293 291 291 293 293 292 291 290
297 290 286 283 283 280 287 284 286 285 285 284 284 284 288 290 294 293 288 290 293 297 296 297 296 294 299 301 297 298 301 302 300 300 302 301 299 300 301 300 302 303 299 298 295 295 294 294 292 293 293 291 290 290
284 285 286 282 285 283 283 285 285 285 284 285 285 285 288 292 288 287 286 288 291 295 296 297 298 297 296 295 297 298 302 302 300 298 300 302 301 301 300 301 300 301 299 297 296 295 294 294 295 294 293 292 291 290
279 283 278 283 283 283 283 284 286 285 285 286 287 291 293 290 288 287 289 292 292 296 297 296 295 295 295 298 297 298 300 304 302 300 301 303 302 300 298 296 296 297 299 298 297 296 295 296 295 294 293 292 289 292
277 281 284 287 288 288 287 290 290 288 287 287 289 289 288 286 287 290 293 293 289 293 297 294 293 297 298 297 300 303 304 304 302 301 302 303 301 300 299 297 296 299 300 299 299 298 296 296 296 296 295 295 295 295
283 284 281 286 287 287 285 285 286 287 289 292 291 288 288 286 286 291 294 294 293 296 297 295 300 300 301 301 303 304 304 305 305 303 302 301 303 302 302 302 302 291 301 301 300 299 298 297 297 297 296 295 295 296
283 286 286 285 287 288 288 287 286 290 294 293 289 288 290 291 295 295 295 296 297 296 295 295 296 303 304 305 305 304 304 301 299 298 297 299 299 299 302 302 301 299 301 298 290 296 299 299 299 299 299 298 297 297
283 286 285 286 285 285 288 290 291 294 296 296 295 293 293 294 296 298 296 296 296 296 299 297 300 301 301 302 302 302 305 306 305 303 299 297 298 299 300 300 300 300 300 300 297 293 287 295 292 297 297 297 298 297
286 286 285 285 284 287 290 293 294 295 294 294 292 291 291 293 296 298 298 298 299 299 300 299 300 302 302 301 302 302 300 301 303 306 305 303 299 299 299 300 300 300 300 299 299 299 298 299 299 299 298 296 295 295
286 287 287 283 283 289 290 288 289 290 290 291 290 293 293 291 290 294 298 300 299 298 294 298 299 299 303 304 302 300 293 298 296 300 304 302 301 302 302 302 302 301 300 300 300 300 300 298 297 297 297 297 297 298
286 289 288 287 285 287 290 290 289 289 289 290 291 291 291 290 289 290 296 301 299 298 299 300 301 300 302 302 299 297 293 294 291 288 287 289 292 297 302 302 302 302 300 299 298 297 296 296 296 297 298 297 296 294
Wind_Speed
10 11 11 11 10 10 13 14 12 10 6 6 6 7 9 10 11 5 5 3 2 4 12 13 7 2 5 3 4 6 7 2 3 4 3 4 4 4 5 3 5 4 5 0 3 2 8 7 1 6 6 12 21 10
10 10 10 9 10 10 11 12 13 12 6 6 6 7 8 10 10 8 3 4 3 4 8 12 20 22 21 24 8 4 4 3 2 3 1 3 3 4 5 3 5 3 3 2 5 7 7 4 6 1 3 11 12 14
11 11 11 10 11 10 12 11 13 13 8 8 7 8 8 10 11 8 3 3 2 4 9 3 5 7 7 12 14 4 3 5 1 1 2 1 3 3 4 2 4 4 3 2 5 3 12 6 9 6 8 9 12 18
9 10 10 11 12 12 12 12 11 10 7 8 8 9 9 11 12 10 2 3 1 4 4 9 6 17 15 11 10 18 3 3 2 1 1 2 3 2 3 5 3 6 3 1 6 6 7 4 17 6 6 19 17 16
9 11 12 12 12 12 12 12 10 9 6 7 8 10 10 11 12 8 6 4 5 2 4 9 20 9 5 7 9 16 10 6 2 1 2 2 3 2 3 4 4 1 3 2 1 4 2 3 14 6 14 19 18 21
10 11 11 12 11 12 11 12 11 5 5 7 8 9 10 11 10 3 4 3 5 0 4 6 5 9 13 7 7 13 10 5 3 2 3 3 4 1 3 4 3 5 4 1 4 5 5 5 9 7 9 18 17 19
11 11 11 11 11 10 11 11 7 5 5 6 9 11 11 10 0 2 5 1 4 4 3 6 6 7 7 1 4 3 4 3 3 2 3 3 3 4 3 4 4 9 8 7 6 4 6 7 1 7 14 14 18 18
11 11 12 12 11 10 11 11 6 7 6 9 10 12 12 11 10 5 7 17 7 2 2 4 6 6 3 2 1 1 1 3 3 2 2 3 1 3 5 6 8 6 10 7 10 5 8 16 14 10 16 18 21 19
10 10 11 12 10 10 11 7 5 7 7 9 12 15 4 2 3 5 3 7 3 2 2 3 3 5 5 3 1 1 2 2 2 2 3 3 3 5 5 6 6 4 4 8 16 16 11 20 22 17 17 19 22 17
10 11 12 11 11 11 11 7 7 6 9 10 3 1 3 4 9 6 3 2 2 2 2 4 3 5 4 3 4 1 1 2 3 5 3 3 4 2 1 2 5 7 8 7 7 14 16 11 14 16 17 15 16 18
11 11 11 12 12 10 7 8 5 5 5 2 1 4 3 7 2 1 2 3 2 3 4 4 5 4 3 3 4 3 2 2 2 3 4 2 3 0 1 4 5 6 3 8 10 12 14 16 15 18 18 18 17 17
12 11 10 13 10 11 11 9 5 2 1 3 2 4 3 2 3 1 3 3 4 5 4 3 5 5 5 4 3 3 3 3 4 4 2 3 1 5 3 4 6 7 11 19 17 18 20 14 16 17 18 18 18 16
13 11 11 12 11 8 13 9 5 2 4 2 1 3 2 4 0 6 4 3 3 3 4 3 5 3 3 2 3 2 4 4 6 3 4 1 5 7 6 7 9 10 14 19 20 19 18 19 17 18 18 15 16 15
12 12 11 11 13 15 13 10 6 1 1 2 3 4 4 5 5 5 3 3 5 2 4 3 3 3 3 3 3 3 5 1 3 3 5 3 7 9 7 8 10 10 12 14 13 16 17 16 12 13 14 13 13 12
11 10 9 11 15 15 13 10 6 2 1 4 4 6 7 6 4 1 3 2 3 3 2 4 4 2 3 3 3 2 4 4 4 3 3 5 7 9 8 8 9 10 9 9 10 11 12 12 11 11 8 12 12 12
10 8 6 16 16 14 13 8 2 1 2 4 6 4 4 1 3 3 3 3 3 2 3 0 3 3 4 3 3 5 3 1 5 1 5 9 8 9 9 9 10 8 8 9 10 10 12 12 13 13 14 14 13 13
7 3 15 18 16 14 13 3 2 4 4 5 5 4 6 3 5 5 3 4 2 3 2 1 2 2 4 3 2 4 4 7 7 1 4 7 10 10 9 8 11 12 11 12 11 10 11 11 12 12 11 9 10 11
4 4 20 18 12 7 1 1 3 4 8 6 4 5 4 4 3 4 4 3 2 2 1 3 2 3 3 3 1 3 2 3 1 3 3 5 7 5 9 12 12 11 11 11 11 11 11 10 9 7 10 11 12 11
5 9 20 22 8 4 5 4 3 4 8 4 6 6 4 4 5 5 4 4 4 4 1 2 4 3 0 3 5 3 2 2 1 3 4 4 5 5 8 12 13 12 12 12 11 8 7 8 7 8 8 9 8 7
13 17 18 20 4 1 3 4 1 4 4 5 2 4 4 5 4 4 4 3 2 2 3 4 4 3 3 3 3 3 3 3 3 7 5 4 6 10 11 12 9 10 10 10 8 8 7 8 8 8 8 9 9 8
10 7 13 7 2 1 3 3 4 4 4 3 3 2 4 2 3 3 4 3 3 4 4 4 4 5 5 3 3 2 2 6 5 4 8 8 6 7 6 7 9 8 9 8 8 7 9 8 7 7 8 7 7 8
4 11 4 2 3 4 4 5 4 3 2 4 3 4 3 3 3 4 3 3 4 5 5 5 5 4 3 5 4 4 6 4 5 6 8 10 9 8 9 7 6 5 7 8 8 8 8 6 7 7 7 6 8 8
11 4 3 4 4 4 7 2 3 4 3 4 1 2 3 2 2 1 2 4 4 5 5 5 6 6 5 4 5 2 5 7 6 7 9 8 8 9 9 8 5 3 6 6 5 7 6 8 8 8 7 7 8 9
3 5 5 4 5 5 4 4 4 4 4 3 3 4 3 4 0 3 4 2 2 2 1 3 3 3 2 5 3 4 5 5 7 6 7 9 8 8 9 8 7 6 5 8 7 7 6 7 8 8 9 10 10 12
4 5 4 6 5 3 5 4 5 4 5 6 4 4 4 2 2 2 3 2 2 3 4 4 1 2 3 3 3 3 5 5 9 9 7 9 9 7 7 7 6 4 5 8 7 9 7 7 8 10 10 10 12 11
5 5 7 9 5 5 5 3 3 4 3 4 5 3 3 1 4 4 2 1 1 2 3 4 4 3 3 1 4 4 5 5 8 8 8 10 11 12 10 7 6 3 4 8 10 11 11 10 10 12 11 11 9 10
5 6 5 4 3 1 3 2 3 3 4 4 3 4 3 3 3 1 1 3 1 1 2 1 1 3 3 4 0 3 4 7 10 10 7 8 7 6 6 6 5 5 7 10 11 12 13 12 11 12 11 9 10 10
5 4 6 4 3 4 5 2 3 2 2 5 3 2 1 1 1 2 1 2 3 3 3 3 4 4 4 3 1 3 3 4 6 5 4 3 3 5 6 4 4 7 9 9 11 10 11 10 11 11 11 10 8 7
4 4 3 5 5 4 5 6 6 2 2 2 1 2 1 2 1 1 1 1 2 2 3 3 1 2 1 3 2 3 3 4 6 8 10 7 3 4 4 5 7 6 8 8 8 11 12 11 11 12 12 10 8 8
5 4 3 4 5 5 4 3 1 2 2 2 2 2 1 0 1 2 1 0 2 3 2 1 1 1 3 3 1 1 1 2 3 5 8 7 7 5 6 6 6 6 8 9 8 5 6 7 5 5 6 5 6 7
4 5 4 4 4 2 1 2 2 2 2 2 1 2 3 2 1 0 2 1 3 2 2 3 1 2 3 4 5 6 3 2 6 9 9 5 5 7 7 6 6 7 8 10 9 9 8 6 7 9 9 8 8 9
5 5 4 2 1 1 3 1 1 2 4 3 3 3 2 2 2 0 2 3 3 4 4 5 8 4 2 5 5 4 5 2 3 3 6 6 5 6 7 7 7 7 8 8 9 10 10 11 7 7 8 11 10 8
5 3 4 3 1 2 3 3 3 2 1 4 3 4 4 3 2 3 0 3 2 3 3 3 4 4 4 7 6 6 6 5 5 6 6 5 9 7 6 6 6 8 9 6 5 7 9 12 11 11 12 12 11 12
Wind_Direction
289 294 304 310 306 316 322 325 315 314 277 280 295 317 325 330 331 342 283 276 202 264 282 264 269 217 301 266 267 296 343 22 325 1 341 337 323 323 345 15 329 162 135 253 92 233 271 197 176 175 215 143 158 163
283 287 292 296 304 316 315 319 321 317 267 269 279 295 309 320 319 323 276 308 302 233 261 290 279 263 251 262 250 236 241 2 265 298 327 307 323 317 333 305 331 48 56 289 191 232 4 269 192 310 143 153 156 136
285 293 293 296 300 307 312 314 316 316 276 263 263 291 297 309 309 306 257 259 310 260 288 308 266 268 226 227 205 209 259 218 193 249 334 270 284 308 309 21 331 351 42 264 320 10 333 351 22 18 89 82 113 130
286 294 295 298 299 302 307 312 308 301 267 289 283 290 293 302 308 317 232 209 181 278 278 277 314 303 292 285 191 203 139 26 90 137 269 257 259 233 282 293 230 218 330 14 293 325 342 4 358 332 119 109 111 117
285 288 291 291 294 298 305 308 301 289 251 276 283 292 305 318 323 309 267 218 197 228 278 298 302 266 268 254 207 189 190 192 200 199 204 260 265 295 274 291 254 309 17 30 216 281 237 302 349 283 126 129 128 126
281 287 290 291 292 295 297 304 300 249 259 279 287 304 309 313 330 350 337 33 106 302 292 306 289 293 305 302 178 176 178 187 186 186 208 260 279 250 265 268 204 61 45 30 299 313 261 328 13 337 121 122 124 125
284 289 293 291 289 291 292 288 282 237 266 280 294 296 299 299 21 197 208 213 252 13 277 300 298 276 290 53 47 63 150 179 169 211 206 227 227 212 243 243 300 343 329 342 308 310 125 125 302 108 127 124 112 105
280 287 290 291 285 285 286 293 223 236 246 279 289 290 289 294 289 263 251 252 230 199 284 283 275 322 322 48 140 294 146 165 197 219 227 225 241 212 255 263 294 316 332 336 348 353 125 113 97 122 117 117 108 108
280 284 285 285 283 280 285 264 222 254 283 289 294 293 291 191 242 237 245 101 155 168 269 251 283 280 336 337 258 249 213 225 131 219 231 173 201 225 236 258 286 308 315 300 316 132 120 127 135 127 125 118 113 112
277 279 278 278 272 272 286 202 218 262 285 298 306 245 244 211 240 292 87 166 160 244 234 258 274 279 20 296 285 40 153 224 207 225 169 224 254 227 46 323 302 314 287 268 160 121 115 113 130 120 115 111 110 112
267 272 275 277 272 276 233 191 218 305 308 129 255 251 279 294 54 210 236 196 154 237 208 237 214 239 257 211 241 199 224 179 255 218 189 252 278 354 21 342 345 333 324 109 103 110 102 119 119 108 104 100 103 104
271 272 269 270 280 295 191 182 193 93 277 190 232 283 293 319 223 267 226 159 210 237 196 220 246 205 258 202 187 231 232 202 257 133 188 240 192 134 118 58 43 42 86 87 88 97 95 87 95 103 99 104 107 111
269 266 266 277 263 251 168 174 166 151 351 5 218 256 198 280 355 209 193 232 218 224 212 232 284 243 301 203 235 209 241 222 115 202 228 176 134 134 120 102 83 84 88 91 93 89 87 92 85 87 90 81 81 86
260 270 261 252 288 170 163 169 158 90 78 203 229 247 209 226 227 201 209 205 248 273 306 290 259 243 277 309 242 248 234 100 234 202 228 172 146 147 136 125 113 104 95 96 98 103 105 106 103 95 100 108 116 122
258 257 254 282 166 160 162 159 145 103 169 243 217 234 222 230 264 167 275 3 287 247 307 321 296 182 270 276 252 241 259 245 223 241 168 141 146 150 148 148 138 136 132 131 130 122 118 120 128 134 121 123 118 117
255 258 225 169 161 161 155 142 120 128 252 235 240 259 272 9 281 355 320 267 263 294 328 95 255 283 248 236 260 248 252 313 304 193 135 136 135 138 140 139 144 141 138 124 120 125 125 125 117 114 110 109 114 117
237 224 166 160 156 155 153 115 170 211 234 233 245 227 245 256 234 242 216 245 222 71 267 286 305 273 312 242 258 6 14 328 308 48 130 144 150 159 163 146 129 124 123 125 125 120 117 115 114 111 112 115 115 109
235 191 162 154 141 121 78 215 245 238 240 241 245 249 241 208 236 261 241 238 133 204 197 220 224 262 271 301 356 265 283 269 12 91 104 134 129 114 135 137 135 134 131 130 128 127 125 126 127 122 122 118 113 113
211 167 159 154 146 161 163 214 199 259 236 243 239 249 237 242 223 220 222 225 198 190 151 275 236 235 115 223 238 274 279 176 165 118 116 102 123 134 134 128 129 131 130 132 131 131 128 120 125 129 125 125 125 125
173 150 162 170 158 158 213 226 181 256 264 245 282 255 222 224 235 219 222 220 200 154 198 212 222 237 216 244 213 227 255 135 141 126 119 99 106 120 135 133 133 132 129 129 120 117 121 121 125 129 134 139 136 139
98 138 134 130 133 264 279 252 212 226 263 261 276 246 250 277 251 210 221 179 149 199 228 221 242 266 255 245 221 239 159 154 170 157 148 129 123 123 107 112 124 131 135 139 140 141 141 148 151 148 146 147 145 146
115 155 104 138 192 210 246 225 217 258 203 244 276 205 242 253 239 233 189 160 211 218 198 195 215 235 307 254 234 214 193 157 118 114 111 124 137 137 131 129 132 144 151 156 155 156 162 160 155 151 159 154 142 143
135 141 143 161 211 220 252 158 223 214 244 263 267 262 254 319 276 40 201 207 226 219 205 205 222 208 220 233 128 135 126 130 134 138 150 149 144 141 139 160 185 148 157 166 160 158 168 160 158 162 158 143 140 149
86 157 179 196 197 243 244 217 208 217 223 225 254 249 229 204 120 225 250 233 244 305 273 233 214 231 162 128 148 173 158 135 129 141 140 138 136 149 152 162 196 213 193 163 159 159 159 160 145 148 154 148 154 160
131 200 210 190 206 244 249 216 195 218 218 212 211 262 239 126 154 224 236 268 360 13 351 339 90 140 158 174 193 195 175 150 150 145 158 152 140 148 180 198 194 228 168 146 153 153 154 136 145 147 152 157 163 171
206 222 186 191 202 215 218 237 211 212 218 200 236 226 79 228 220 227 182 108 82 19 25 17 358 10 5 169 162 170 165 150 143 143 164 164 167 171 181 181 202 233 175 152 152 155 154 154 154 156 163 170 168 164
224 242 209 227 197 275 286 213 185 219 258 210 222 129 151 228 242 87 99 23 345 346 324 321 310 323 313 320 101 126 133 144 157 162 163 165 164 161 161 176 196 221 169 163 158 160 161 166 171 168 168 174 175 168
240 252 210 204 208 191 227 289 276 248 41 335 26 69 195 270 293 267 272 219 250 293 305 295 259 248 269 282 106 99 108 108 123 115 102 108 160 175 180 202 219 188 169 166 166 164 169 163 166 168 169 169 177 174
236 241 190 225 215 236 221 204 214 229 105 98 202 223 183 193 215 202 254 252 236 249 268 266 306 291 246 94 103 148 121 130 131 141 165 192 228 271 198 200 202 179 166 161 163 164 162 156 163 166 171 167 166 161
236 186 242 218 204 226 228 153 143 67 64 110 202 150 95 112 171 125 76 16 315 291 290 188 211 216 122 106 99 353 2 183 187 176 179 195 205 206 175 164 151 148 145 142 138 120 104 118 95 100 129 140 157 160
219 171 195 224 230 210 76 349 57 201 218 117 71 174 160 161 83 157 108 305 307 334 11 3 100 192 160 151 179 231 220 197 221 215 212 206 176 165 162 158 149 138 133 133 136 141 132 137 148 156 161 153 164 162
184 196 177 186 298 151 67 60 269 239 188 143 181 187 179 130 149 325 349 349 5 10 359 28 28 328 82 125 133 125 106 120 123 110 102 128 124 128 132 133 125 125 126 134 139 148 155 156 148 142 125 117 108 98
173 136 106 125 131 207 177 195 229 182 120 165 169 174 183 150 145 214 283 85 25 9 21 9 334 351 51 91 101 99 89 85 88 64 46 66 115 122 122 112 122 124 119 123 128 126 126 128 131 128 124 120 118 120